Time,TemperatureF,DewpointF,PressureIn,WindDirection,WindDirectionDegrees,WindSpeedMPH,WindSpeedGustMPH,Humidity,HourlyPrecipIn,Conditions,Clouds,dailyrainin,SoftwareType,DateUTC
2013-10-04 00:00:00,64.5,60.2,30.08,North,32767,0.0,0.0,86,0.00,,,0.00,Wunderground v.1.15,2013-10-04 04:00:00,
2013-10-04 00:40:00,63.3,60.0,30.08,North,32767,0.0,0.0,89,0.00,,,0.00,Wunderground v.1.15,2013-10-04 04:40:00,
2013-10-04 00:45:00,63.2,59.9,30.08,North,32767,0.0,0.0,89,0.00,,,0.00,Wunderground v.1.15,2013-10-04 04:45:00,
2013-10-04 00:55:00,63.2,60.2,30.08,North,360,0.0,0.0,90,0.00,,,0.00,Wunderground v.1.15,2013-10-04 04:55:00,
2013-10-04 01:00:00,63.2,60.2,30.08,North,32767,0.0,0.0,90,0.00,,,0.00,Wunderground v.1.15,2013-10-04 05:00:00,
2013-10-04 01:05:00,63.1,60.1,30.08,North,32767,0.0,0.0,90,0.00,,,0.00,Wunderground v.1.15,2013-10-04 05:05:00,
2013-10-04 01:15:00,62.8,60.1,30.08,North,32767,0.0,0.0,91,0.00,,,0.00,Wunderground v.1.15,2013-10-04 05:15:00,
2013-10-04 01:20:00,62.6,59.9,30.08,North,32767,0.0,0.0,91,0.00,,,0.00,Wunderground v.1.15,2013-10-04 05:20:00,
2013-10-04 01:30:00,62.2,59.8,30.08,North,32767,0.0,0.0,92,0.00,,,0.00,Wunderground v.1.15,2013-10-04 05:30:00,
2013-10-04 01:35:00,62.0,59.6,30.08,North,32767,0.0,0.0,92,0.00,,,0.00,Wunderground v.1.15,2013-10-04 05:35:00,
2013-10-04 01:40:00,61.8,59.5,30.08,North,32767,0.0,0.0,92,0.00,,,0.00,Wunderground v.1.15,2013-10-04 05:40:00,
2013-10-04 01:45:00,61.7,59.4,30.08,North,32767,0.0,0.0,92,0.00,,,0.00,Wunderground v.1.15,2013-10-04 05:45:00,
2013-10-04 01:55:00,61.4,59.4,30.08,North,32767,0.0,0.0,93,0.00,,,0.00,Wunderground v.1.15,2013-10-04 05:55:00,
2013-10-04 02:00:00,61.3,59.3,30.08,North,360,0.0,0.0,93,0.00,,,0.00,Wunderground v.1.15,2013-10-04 06:00:00,
2013-10-04 02:05:00,61.2,59.2,30.08,North,360,0.0,0.0,93,0.00,,,0.00,Wunderground v.1.15,2013-10-04 06:05:00,
2013-10-04 02:15:00,61.1,59.4,30.08,North,360,0.0,0.0,94,0.00,,,0.00,Wunderground v.1.15,2013-10-04 06:15:00,
2013-10-04 02:20:00,61.1,59.4,30.08,North,32767,0.0,0.0,94,0.00,,,0.00,Wunderground v.1.15,2013-10-04 06:20:00,
2013-10-04 02:30:00,61.1,59.7,30.08,North,32767,0.0,0.0,95,0.00,,,0.00,Wunderground v.1.15,2013-10-04 06:30:00,
2013-10-04 02:40:00,61.0,59.6,30.08,North,360,0.0,0.0,95,0.00,,,0.00,Wunderground v.1.15,2013-10-04 06:40:00,
2013-10-04 02:50:00,60.9,59.5,30.07,North,32767,0.0,0.0,95,0.00,,,0.00,Wunderground v.1.15,2013-10-04 06:50:00,
2013-10-04 03:00:00,60.8,59.4,30.07,North,32767,0.0,0.0,95,0.00,,,0.00,Wunderground v.1.15,2013-10-04 07:00:00,
2013-10-04 03:05:00,60.8,59.4,30.07,North,360,0.0,0.0,95,0.00,,,0.00,Wunderground v.1.15,2013-10-04 07:05:00,
2013-10-04 03:15:00,60.7,59.3,30.07,North,32767,0.0,0.0,95,0.00,,,0.00,Wunderground v.1.15,2013-10-04 07:15:00,
2013-10-04 03:25:00,60.6,59.2,30.07,North,32767,0.0,0.0,95,0.00,,,0.00,Wunderground v.1.15,2013-10-04 07:25:00,
2013-10-04 03:30:00,60.6,59.2,30.07,North,32767,0.0,0.0,95,0.00,,,0.00,Wunderground v.1.15,2013-10-04 07:30:00,
2013-10-04 03:40:00,60.4,59.0,30.07,North,32767,0.0,0.0,95,0.00,,,0.00,Wunderground v.1.15,2013-10-04 07:40:00,
2013-10-04 03:50:00,60.3,59.2,30.08,North,32767,0.0,0.0,96,0.00,,,0.00,Wunderground v.1.15,2013-10-04 07:50:00,
2013-10-04 04:00:00,60.2,59.1,30.08,North,32767,0.0,0.0,96,0.00,,,0.00,Wunderground v.1.15,2013-10-04 08:00:00,
2013-10-04 04:05:00,60.3,59.2,30.08,North,360,0.0,0.0,96,0.00,,,0.00,Wunderground v.1.15,2013-10-04 08:05:00,
2013-10-04 04:15:00,60.3,59.2,30.08,North,360,0.0,0.0,96,0.00,,,0.00,Wunderground v.1.15,2013-10-04 08:15:00,
2013-10-04 04:25:00,60.4,59.3,30.08,North,360,0.0,0.0,96,0.00,,,0.00,Wunderground v.1.15,2013-10-04 08:25:00,
2013-10-04 04:35:00,60.4,59.3,30.08,North,360,0.0,0.0,96,0.00,,,0.00,Wunderground v.1.15,2013-10-04 08:35:00,
2013-10-04 04:45:00,60.4,59.3,30.08,North,360,0.0,0.0,96,0.00,,,0.00,Wunderground v.1.15,2013-10-04 08:45:00,
2013-10-04 04:50:00,60.4,59.3,30.08,North,32767,0.0,0.0,96,0.00,,,0.00,Wunderground v.1.15,2013-10-04 08:50:00,
2013-10-04 05:00:00,60.2,59.1,30.08,North,32767,0.0,0.0,96,0.00,,,0.00,Wunderground v.1.15,2013-10-04 09:00:00,
2013-10-04 05:05:00,60.2,59.1,30.08,North,32767,0.0,0.0,96,0.00,,,0.00,Wunderground v.1.15,2013-10-04 09:05:00,
2013-10-04 05:15:00,60.2,59.1,30.08,North,32767,0.0,0.0,96,0.00,,,0.00,Wunderground v.1.15,2013-10-04 09:15:00,
2013-10-04 05:25:00,60.2,59.1,30.08,North,32767,0.0,0.0,96,0.00,,,0.00,Wunderground v.1.15,2013-10-04 09:25:00,
2013-10-04 05:30:00,60.2,59.1,30.08,North,32767,0.0,0.0,96,0.00,,,0.00,Wunderground v.1.15,2013-10-04 09:30:00,
2013-10-04 05:35:00,60.2,59.1,30.08,North,32767,0.0,0.0,96,0.00,,,0.00,Wunderground v.1.15,2013-10-04 09:35:00,
2013-10-04 05:45:00,60.1,59.0,30.08,North,32767,0.0,0.0,96,0.00,,,0.00,Wunderground v.1.15,2013-10-04 09:45:00,
2013-10-04 05:55:00,59.9,58.8,30.08,North,32767,0.0,0.0,96,0.00,,,0.00,Wunderground v.1.15,2013-10-04 09:55:00,
2013-10-04 06:05:00,59.9,58.8,30.08,North,360,0.0,0.0,96,0.00,,,0.00,Wunderground v.1.15,2013-10-04 10:05:00,
2013-10-04 06:15:00,59.8,58.7,30.08,North,32767,0.0,0.0,96,0.00,,,0.00,Wunderground v.1.15,2013-10-04 10:15:00,
2013-10-04 06:25:00,59.5,58.4,30.09,North,32767,0.0,0.0,96,0.00,,,0.00,Wunderground v.1.15,2013-10-04 10:25:00,
2013-10-04 06:30:00,59.3,58.2,30.09,North,32767,0.0,0.0,96,0.00,,,0.00,Wunderground v.1.15,2013-10-04 10:30:00,
2013-10-04 06:40:00,59.0,57.9,30.09,North,32767,0.0,0.0,96,0.00,,,0.00,Wunderground v.1.15,2013-10-04 10:40:00,
2013-10-04 06:50:00,59.0,58.2,30.09,North,32767,0.0,0.0,97,0.00,,,0.00,Wunderground v.1.15,2013-10-04 10:50:00,
2013-10-04 07:00:00,58.7,57.9,30.09,North,32767,0.0,0.0,97,0.00,,,0.00,Wunderground v.1.15,2013-10-04 11:00:00,
2013-10-04 07:05:00,58.6,57.8,30.10,North,32767,0.0,0.0,97,0.00,,,0.00,Wunderground v.1.15,2013-10-04 11:05:00,
2013-10-04 07:15:00,58.6,58.0,30.10,North,32767,0.0,0.0,98,0.00,,,0.00,Wunderground v.1.15,2013-10-04 11:15:00,
2013-10-04 07:20:00,58.7,58.1,30.10,North,32767,0.0,0.0,98,0.00,,,0.00,Wunderground v.1.15,2013-10-04 11:20:00,
2013-10-04 07:25:00,58.6,58.0,30.10,North,32767,0.0,0.0,98,0.00,,,0.00,Wunderground v.1.15,2013-10-04 11:25:00,
2013-10-04 07:30:00,58.6,58.0,30.10,North,32767,0.0,0.0,98,0.00,,,0.00,Wunderground v.1.15,2013-10-04 11:30:00,
2013-10-04 07:35:00,58.7,58.1,30.11,North,32767,0.0,0.0,98,0.00,,,0.00,Wunderground v.1.15,2013-10-04 11:35:00,
2013-10-04 07:45:00,58.8,58.2,30.11,North,360,0.0,0.0,98,0.00,,,0.00,Wunderground v.1.15,2013-10-04 11:45:00,
2013-10-04 07:50:00,58.8,58.2,30.11,North,360,0.0,0.0,98,0.00,,,0.00,Wunderground v.1.15,2013-10-04 11:50:00,
2013-10-04 07:55:00,58.9,58.3,30.11,North,32767,0.0,0.0,98,0.00,,,0.00,Wunderground v.1.15,2013-10-04 11:55:00,
2013-10-04 08:05:00,58.8,58.2,30.11,North,32767,0.0,0.0,98,0.00,,,0.00,Wunderground v.1.15,2013-10-04 12:05:00,
2013-10-04 08:15:00,59.0,58.4,30.11,North,360,0.0,0.0,98,0.00,,,0.00,Wunderground v.1.15,2013-10-04 12:15:00,
2013-10-04 08:20:00,59.0,58.4,30.11,North,360,0.0,0.0,98,0.00,,,0.00,Wunderground v.1.15,2013-10-04 12:20:00,
2013-10-04 08:30:00,59.0,58.4,30.12,North,32767,0.0,0.0,98,0.00,,,0.00,Wunderground v.1.15,2013-10-04 12:30:00,
2013-10-04 08:40:00,59.0,58.4,30.12,North,360,0.0,0.0,98,0.00,,,0.00,Wunderground v.1.15,2013-10-04 12:40:00,
2013-10-04 08:50:00,59.0,58.4,30.12,North,360,0.0,0.0,98,0.00,,,0.00,Wunderground v.1.15,2013-10-04 12:50:00,
2013-10-04 08:55:00,59.0,58.4,30.13,North,360,0.0,0.0,98,0.00,,,0.00,Wunderground v.1.15,2013-10-04 12:55:00,
2013-10-04 09:05:00,59.0,58.4,30.13,North,32767,0.0,0.0,98,0.00,,,0.00,Wunderground v.1.15,2013-10-04 13:05:00,
2013-10-04 09:15:00,59.0,58.4,30.13,North,32767,0.0,0.0,98,0.00,,,0.00,Wunderground v.1.15,2013-10-04 13:15:00,
2013-10-04 09:25:00,59.0,58.4,30.13,North,32767,0.0,0.0,98,0.00,,,0.00,Wunderground v.1.15,2013-10-04 13:25:00,
2013-10-04 09:35:00,59.1,58.8,30.13,North,360,0.0,0.0,99,0.00,,,0.00,Wunderground v.1.15,2013-10-04 13:35:00,
2013-10-04 09:40:00,59.2,58.9,30.13,North,32767,0.0,0.0,99,0.00,,,0.00,Wunderground v.1.15,2013-10-04 13:40:00,
2013-10-04 09:45:00,59.3,59.0,30.14,North,360,0.0,0.0,99,0.00,,,0.00,Wunderground v.1.15,2013-10-04 13:45:00,
2013-10-04 09:50:00,59.4,59.1,30.14,North,32767,0.0,0.0,99,0.00,,,0.00,Wunderground v.1.15,2013-10-04 13:50:00,
2013-10-04 09:55:00,59.4,59.1,30.14,North,32767,0.0,0.0,99,0.00,,,0.00,Wunderground v.1.15,2013-10-04 13:55:00,
2013-10-04 10:00:00,59.6,59.3,30.14,North,32767,0.0,0.0,99,0.00,,,0.00,Wunderground v.1.15,2013-10-04 14:00:00,
2013-10-04 10:05:00,59.7,59.4,30.14,North,32767,0.0,0.0,99,0.00,,,0.00,Wunderground v.1.15,2013-10-04 14:05:00,
2013-10-04 10:14:00,60.0,59.7,30.14,North,32767,0.0,0.0,99,0.00,,,0.00,Wunderground v.1.15,2013-10-04 14:14:00,
2013-10-04 10:19:00,60.2,59.9,30.14,North,32767,0.0,0.0,99,0.00,,,0.00,Wunderground v.1.15,2013-10-04 14:19:00,
2013-10-04 10:25:00,60.3,60.0,30.14,North,360,0.0,0.0,99,0.00,,,0.00,Wunderground v.1.15,2013-10-04 14:25:00,
2013-10-04 10:35:00,60.7,60.4,30.14,North,360,0.0,0.0,99,0.00,,,0.00,Wunderground v.1.15,2013-10-04 14:35:00,
2013-10-04 10:45:00,61.4,61.1,30.14,North,32767,0.0,0.0,99,0.00,,,0.00,Wunderground v.1.15,2013-10-04 14:45:00,
2013-10-04 10:50:00,61.7,61.4,30.14,North,32767,0.0,0.0,99,0.00,,,0.00,Wunderground v.1.15,2013-10-04 14:50:00,
2013-10-04 10:55:00,62.0,61.7,30.14,North,360,0.0,0.0,99,0.00,,,0.00,Wunderground v.1.15,2013-10-04 14:55:00,
2013-10-04 11:00:00,62.3,62.0,30.14,North,32767,0.0,0.0,99,0.00,,,0.00,Wunderground v.1.15,2013-10-04 15:00:00,
2013-10-04 11:05:00,62.6,62.0,30.13,North,360,0.0,0.0,98,0.00,,,0.00,Wunderground v.1.15,2013-10-04 15:05:00,
2013-10-04 11:14:00,63.1,62.2,30.13,North,32767,0.0,0.0,97,0.00,,,0.00,Wunderground v.1.15,2013-10-04 15:14:00,
2013-10-04 11:20:00,63.4,62.2,30.13,North,360,0.0,0.0,96,0.00,,,0.00,Wunderground v.1.15,2013-10-04 15:20:00,
2013-10-04 11:25:00,63.8,62.6,30.13,North,32767,0.0,0.0,96,0.00,,,0.00,Wunderground v.1.15,2013-10-04 15:25:00,
2013-10-04 11:35:00,65.0,63.2,30.13,North,32767,0.0,0.0,94,0.00,,,0.00,Wunderground v.1.15,2013-10-04 15:35:00,
2013-10-04 11:45:00,66.1,64.0,30.13,North,32767,0.0,0.0,93,0.00,,,0.00,Wunderground v.1.15,2013-10-04 15:45:00,
2013-10-04 11:50:00,66.7,64.3,30.13,North,32767,0.0,0.0,92,0.00,,,0.00,Wunderground v.1.15,2013-10-04 15:50:00,
2013-10-04 12:00:00,67.9,64.5,30.12,North,32767,0.0,0.0,89,0.00,,,0.00,Wunderground v.1.15,2013-10-04 16:00:00,
2013-10-04 12:05:00,68.8,65.1,30.13,North,32767,0.0,0.0,88,0.00,,,0.00,Wunderground v.1.15,2013-10-04 16:05:00,
2013-10-04 12:14:00,69.4,64.0,30.12,North,360,0.0,0.0,83,0.00,,,0.00,Wunderground v.1.15,2013-10-04 16:14:00,
2013-10-04 12:20:00,69.2,64.2,30.12,North,360,0.0,0.0,84,0.00,,,0.00,Wunderground v.1.15,2013-10-04 16:20:00,
2013-10-04 12:30:00,69.4,64.0,30.12,North,32767,0.0,0.0,83,0.00,,,0.00,Wunderground v.1.15,2013-10-04 16:30:00,
2013-10-04 12:40:00,69.7,64.0,30.12,North,32767,0.0,0.0,82,0.00,,,0.00,Wunderground v.1.15,2013-10-04 16:40:00,
2013-10-04 12:50:00,69.9,64.2,30.12,North,32767,0.0,0.0,82,0.00,,,0.00,Wunderground v.1.15,2013-10-04 16:50:00,
2013-10-04 13:00:00,70.2,63.4,30.11,North,32767,0.0,0.0,79,0.00,,,0.00,Wunderground v.1.15,2013-10-04 17:00:00,
2013-10-04 13:05:00,70.4,63.9,30.11,North,360,0.0,0.0,80,0.00,,,0.00,Wunderground v.1.15,2013-10-04 17:05:00,
2013-10-04 13:15:00,70.7,64.2,30.11,North,32767,0.0,0.0,80,0.00,,,0.00,Wunderground v.1.15,2013-10-04 17:15:00,
2013-10-04 13:20:00,70.8,64.3,30.11,North,32767,0.0,0.0,80,0.00,,,0.00,Wunderground v.1.15,2013-10-04 17:20:00,
2013-10-04 13:25:00,71.1,64.6,30.10,North,32767,0.0,0.0,80,0.00,,,0.00,Wunderground v.1.15,2013-10-04 17:25:00,
2013-10-04 13:30:00,71.2,65.1,30.10,North,32767,0.0,0.0,81,0.00,,,0.00,Wunderground v.1.15,2013-10-04 17:30:00,
2013-10-04 14:10:00,72.1,62.6,30.08,North,32767,0.0,0.0,72,0.00,,,0.00,Wunderground v.1.15,2013-10-04 18:10:00,
2013-10-04 14:15:00,72.3,62.4,30.08,North,32767,0.0,0.0,71,0.00,,,0.00,Wunderground v.1.15,2013-10-04 18:15:00,
2013-10-04 14:20:00,72.8,65.5,30.08,North,360,0.0,0.0,78,0.00,,,0.00,Wunderground v.1.15,2013-10-04 18:20:00,
2013-10-04 14:25:00,73.0,65.0,30.08,North,360,0.0,0.0,76,0.00,,,0.00,Wunderground v.1.15,2013-10-04 18:25:00,
2013-10-04 14:30:00,73.3,65.7,30.08,North,32767,0.0,0.0,77,0.00,,,0.00,Wunderground v.1.15,2013-10-04 18:30:00,
2013-10-04 14:40:00,74.6,67.3,30.08,North,32767,0.0,0.0,78,0.00,,,0.00,Wunderground v.1.15,2013-10-04 18:40:00,
2013-10-04 14:45:00,75.5,65.8,30.08,North,32767,0.0,0.0,72,0.00,,,0.00,Wunderground v.1.15,2013-10-04 18:45:00,
2013-10-04 14:50:00,75.8,64.9,30.07,North,32767,0.0,0.0,69,0.00,,,0.00,Wunderground v.1.15,2013-10-04 18:50:00,
2013-10-04 14:55:00,76.0,63.4,30.07,North,360,0.0,0.0,65,0.00,,,0.00,Wunderground v.1.15,2013-10-04 18:55:00,
2013-10-04 15:00:00,76.3,64.5,30.07,North,360,0.0,0.0,67,0.00,,,0.00,Wunderground v.1.15,2013-10-04 19:00:00,
2013-10-04 15:05:00,76.3,65.8,30.07,North,32767,0.0,0.0,70,0.00,,,0.00,Wunderground v.1.15,2013-10-04 19:05:00,
2013-10-04 15:15:00,75.3,66.0,30.07,North,360,0.0,0.0,73,0.00,,,0.00,Wunderground v.1.15,2013-10-04 19:15:00,
2013-10-04 15:20:00,75.2,65.6,30.07,North,32767,0.0,0.0,72,0.00,,,0.00,Wunderground v.1.15,2013-10-04 19:20:00,
2013-10-04 15:25:00,74.9,64.0,30.07,North,32767,0.0,0.0,69,0.00,,,0.00,Wunderground v.1.15,2013-10-04 19:25:00,
2013-10-04 15:35:00,74.8,64.8,30.06,North,32767,0.0,0.0,71,0.00,,,0.00,Wunderground v.1.15,2013-10-04 19:35:00,
2013-10-04 15:40:00,74.7,64.3,30.06,North,360,0.0,0.0,70,0.00,,,0.00,Wunderground v.1.15,2013-10-04 19:40:00,
2013-10-04 15:50:00,74.9,64.0,30.05,North,360,0.0,0.0,69,0.00,,,0.00,Wunderground v.1.15,2013-10-04 19:50:00,
2013-10-04 15:55:00,75.1,64.6,30.06,North,32767,0.0,0.0,70,0.00,,,0.00,Wunderground v.1.15,2013-10-04 19:55:00,
2013-10-04 16:00:00,75.6,65.1,30.06,North,32767,0.0,0.0,70,0.00,,,0.00,Wunderground v.1.15,2013-10-04 20:00:00,
2013-10-04 16:05:00,75.8,65.3,30.06,North,32767,0.0,0.0,70,0.00,,,0.00,Wunderground v.1.15,2013-10-04 20:05:00,
2013-10-04 16:15:00,76.3,65.4,30.05,North,32767,0.0,0.0,69,0.00,,,0.00,Wunderground v.1.15,2013-10-04 20:15:00,
2013-10-04 16:20:00,76.5,65.1,30.05,North,32767,0.0,0.0,68,0.00,,,0.00,Wunderground v.1.15,2013-10-04 20:20:00,
2013-10-04 16:30:00,76.4,64.2,30.05,North,32767,0.0,0.0,66,0.00,,,0.00,Wunderground v.1.15,2013-10-04 20:30:00,
2013-10-04 16:35:00,76.3,64.1,30.05,North,32767,0.0,0.0,66,0.00,,,0.00,Wunderground v.1.15,2013-10-04 20:35:00,
2013-10-04 16:40:00,76.3,64.1,30.05,North,360,0.0,0.0,66,0.00,,,0.00,Wunderground v.1.15,2013-10-04 20:40:00,
2013-10-04 16:45:00,76.3,63.7,30.05,North,32767,0.0,0.0,65,0.00,,,0.00,Wunderground v.1.15,2013-10-04 20:45:00,
2013-10-04 16:55:00,76.3,65.4,30.05,North,32767,0.0,0.0,69,0.00,,,0.00,Wunderground v.1.15,2013-10-04 20:55:00,
2013-10-04 17:05:00,76.2,64.0,30.05,North,32767,0.0,0.0,66,0.00,,,0.00,Wunderground v.1.15,2013-10-04 21:05:00,
2013-10-04 17:15:00,76.2,64.9,30.05,North,32767,0.0,0.0,68,0.00,,,0.00,Wunderground v.1.15,2013-10-04 21:15:00,
2013-10-04 17:25:00,76.1,64.3,30.05,North,32767,0.0,0.0,67,0.00,,,0.00,Wunderground v.1.15,2013-10-04 21:25:00,
2013-10-04 17:30:00,76.1,66.0,30.05,North,32767,0.0,0.0,71,0.00,,,0.00,Wunderground v.1.15,2013-10-04 21:30:00,
2013-10-04 17:40:00,76.1,64.8,30.05,North,360,0.0,0.0,68,0.00,,,0.00,Wunderground v.1.15,2013-10-04 21:40:00,
2013-10-04 17:50:00,76.0,65.1,30.05,North,32767,0.0,0.0,69,0.00,,,0.00,Wunderground v.1.15,2013-10-04 21:50:00,
2013-10-04 17:55:00,75.8,64.5,30.05,North,32767,0.0,0.0,68,0.00,,,0.00,Wunderground v.1.15,2013-10-04 21:55:00,
2013-10-04 18:00:00,75.7,64.4,30.05,North,360,0.0,0.0,68,0.00,,,0.00,Wunderground v.1.15,2013-10-04 22:00:00,
2013-10-04 18:05:00,75.7,64.4,30.05,North,360,0.0,0.0,68,0.00,,,0.00,Wunderground v.1.15,2013-10-04 22:05:00,
2013-10-04 18:15:00,75.6,67.1,30.05,North,32767,0.0,0.0,75,0.00,,,0.00,Wunderground v.1.15,2013-10-04 22:15:00,
2013-10-04 18:20:00,75.4,66.5,30.05,North,32767,0.0,0.0,74,0.00,,,0.00,Wunderground v.1.15,2013-10-04 22:20:00,
2013-10-04 18:30:00,75.1,66.2,30.05,North,32767,0.0,0.0,74,0.00,,,0.00,Wunderground v.1.15,2013-10-04 22:30:00,
2013-10-04 18:40:00,74.9,66.8,30.06,North,32767,0.0,0.0,76,0.00,,,0.00,Wunderground v.1.15,2013-10-04 22:40:00,
2013-10-04 18:45:00,74.8,66.0,30.06,North,32767,0.0,0.0,74,0.00,,,0.00,Wunderground v.1.15,2013-10-04 22:45:00,
2013-10-04 18:55:00,74.0,65.6,30.06,North,32767,0.0,0.0,75,0.00,,,0.00,Wunderground v.1.15,2013-10-04 22:55:00,
2013-10-04 19:05:00,72.8,65.2,30.07,North,32767,0.0,0.0,77,0.00,,,0.00,Wunderground v.1.15,2013-10-04 23:05:00,
2013-10-04 19:15:00,71.4,64.9,30.07,North,360,0.0,0.0,80,0.00,,,0.00,Wunderground v.1.15,2013-10-04 23:15:00,
2013-10-04 19:25:00,70.6,64.8,30.07,North,32767,0.0,0.0,82,0.00,,,0.00,Wunderground v.1.15,2013-10-04 23:25:00,
2013-10-04 19:30:00,70.1,64.3,30.07,North,360,0.0,0.0,82,0.00,,,0.00,Wunderground v.1.15,2013-10-04 23:30:00,
2013-10-04 19:35:00,69.7,64.3,30.07,North,32767,0.0,0.0,83,0.00,,,0.00,Wunderground v.1.15,2013-10-04 23:35:00,
2013-10-04 19:45:00,68.8,63.8,30.07,North,32767,0.0,0.0,84,0.00,,,0.00,Wunderground v.1.15,2013-10-04 23:45:00,
2013-10-04 19:50:00,68.6,63.9,30.08,North,32767,0.0,0.0,85,0.00,,,0.00,Wunderground v.1.15,2013-10-04 23:50:00,
2013-10-04 19:55:00,68.4,63.7,30.08,North,32767,0.0,0.0,85,0.00,,,0.00,Wunderground v.1.15,2013-10-04 23:55:00,
2013-10-04 20:05:00,68.3,63.6,30.08,North,32767,0.0,0.0,85,0.00,,,0.00,Wunderground v.1.15,2013-10-05 00:05:00,
2013-10-04 20:15:00,68.3,63.6,30.08,North,360,0.0,0.0,85,0.00,,,0.00,Wunderground v.1.15,2013-10-05 00:15:00,
2013-10-04 20:20:00,68.3,63.6,30.08,North,360,0.0,0.0,85,0.00,,,0.00,Wunderground v.1.15,2013-10-05 00:20:00,
2013-10-04 20:25:00,68.4,63.7,30.08,North,32767,0.0,0.0,85,0.00,,,0.00,Wunderground v.1.15,2013-10-05 00:25:00,
2013-10-04 20:34:00,68.4,64.0,30.08,North,32767,0.0,0.0,86,0.00,,,0.00,Wunderground v.1.15,2013-10-05 00:34:00,
2013-10-04 20:40:00,68.3,63.9,30.08,North,32767,0.0,0.0,86,0.00,,,0.00,Wunderground v.1.15,2013-10-05 00:40:00,
2013-10-04 20:50:00,68.3,63.6,30.09,North,360,0.0,0.0,85,0.00,,,0.00,Wunderground v.1.15,2013-10-05 00:50:00,
2013-10-04 20:55:00,68.3,63.6,30.09,North,360,0.0,0.0,85,0.00,,,0.00,Wunderground v.1.15,2013-10-05 00:55:00,
2013-10-04 21:00:00,68.4,63.7,30.09,North,32767,0.0,0.0,85,0.00,,,0.00,Wunderground v.1.15,2013-10-05 01:00:00,
2013-10-04 21:05:00,68.4,63.7,30.09,North,360,0.0,0.0,85,0.00,,,0.00,Wunderground v.1.15,2013-10-05 01:05:00,
2013-10-04 21:15:00,68.3,63.6,30.09,North,32767,0.0,0.0,85,0.00,,,0.00,Wunderground v.1.15,2013-10-05 01:15:00,
2013-10-04 21:25:00,67.9,63.6,30.09,North,360,0.0,0.0,86,0.00,,,0.00,Wunderground v.1.15,2013-10-05 01:25:00,
2013-10-04 21:35:00,67.4,63.4,30.09,North,32767,0.0,0.0,87,0.00,,,0.00,Wunderground v.1.15,2013-10-05 01:35:00,
2013-10-04 21:45:00,67.0,63.3,30.10,North,32767,0.0,0.0,88,0.00,,,0.00,Wunderground v.1.15,2013-10-05 01:45:00,
2013-10-04 21:55:00,66.6,62.9,30.10,North,360,0.0,0.0,88,0.00,,,0.00,Wunderground v.1.15,2013-10-05 01:55:00,
2013-10-04 22:00:00,66.5,62.5,30.10,North,360,0.0,0.0,87,0.00,,,0.00,Wunderground v.1.15,2013-10-05 02:00:00,
2013-10-04 22:10:00,66.3,62.3,30.10,North,32767,0.0,0.0,87,0.00,,,0.00,Wunderground v.1.15,2013-10-05 02:10:00,
2013-10-04 22:15:00,66.2,62.5,30.10,North,32767,0.0,0.0,88,0.00,,,0.00,Wunderground v.1.15,2013-10-05 02:15:00,
2013-10-04 22:20:00,66.1,62.1,30.10,North,32767,0.0,0.0,87,0.00,,,0.00,Wunderground v.1.15,2013-10-05 02:20:00,
2013-10-04 22:25:00,66.1,62.4,30.10,North,360,0.0,0.0,88,0.00,,,0.00,Wunderground v.1.15,2013-10-05 02:25:00,
2013-10-04 22:30:00,66.0,62.3,30.10,North,360,0.0,0.0,88,0.00,,,0.00,Wunderground v.1.15,2013-10-05 02:30:00,
2013-10-04 22:40:00,65.8,62.1,30.10,North,360,0.0,0.0,88,0.00,,,0.00,Wunderground v.1.15,2013-10-05 02:40:00,
2013-10-04 22:45:00,65.7,62.0,30.10,North,32767,0.0,0.0,88,0.00,,,0.00,Wunderground v.1.15,2013-10-05 02:45:00,
2013-10-04 22:55:00,65.5,62.2,30.10,North,32767,0.0,0.0,89,0.00,,,0.00,Wunderground v.1.15,2013-10-05 02:55:00,
2013-10-04 23:05:00,65.4,62.4,30.10,North,32767,0.0,0.0,90,0.00,,,0.00,Wunderground v.1.15,2013-10-05 03:05:00,
2013-10-04 23:15:00,65.2,62.5,30.10,North,32767,0.0,0.0,91,0.00,,,0.00,Wunderground v.1.15,2013-10-05 03:15:00,
2013-10-04 23:20:00,65.2,62.5,30.10,North,32767,0.0,0.0,91,0.00,,,0.00,Wunderground v.1.15,2013-10-05 03:20:00,
2013-10-04 23:30:00,64.8,62.4,30.10,North,32767,0.0,0.0,92,0.00,,,0.00,Wunderground v.1.15,2013-10-05 03:30:00,
2013-10-04 23:35:00,64.6,62.2,30.09,North,32767,0.0,0.0,92,0.00,,,0.00,Wunderground v.1.15,2013-10-05 03:35:00,
2013-10-04 23:40:00,64.5,62.4,30.09,North,360,0.0,0.0,93,0.00,,,0.00,Wunderground v.1.15,2013-10-05 03:40:00,
2013-10-04 23:50:00,64.3,62.2,30.10,North,32767,0.0,0.0,93,0.00,,,0.00,Wunderground v.1.15,2013-10-05 03:50:00,